Weather History for PHTO - November, 2012

Change the Weather History Date:

Wednesday, November 7, 2012

  Actual Average Record
Temperature  
Mean Temperature 75 °F 75 °F  
Max Temperature 84 °F 81 °F 92 °F (1996)
Min Temperature 65 °F 68 °F 61 °F (1979)
Degree Days  
Heating Degree Days 0 0  
Month to date heating degree days 0 0  
Since 1 July heating degree days 0 0  
Cooling Degree Days 10 10  
Month to date cooling degree days 74 70  
Year to date cooling degree days 2749 2805  
Growing Degree Days 23 (Base 50)    
Moisture  
Dew Point 63 °F    
Average Humidity 71    
Maximum Humidity 84    
Minimum Humidity 58    
Precipitation  
Precipitation 0.01 in 0.53 in 5.13 in (1990)
Month to date precipitation 0.84 3.60  
Year to date precipitation 74.22 103.25  
Snow  
Snow 0.00 in - - ()
Month to date snowfall 0.0  
Since 1 July snowfall 0.0  
Since 1 September snowfall 0.0  
Snow Depth 0.00 in    
Sea Level Pressure  
Sea Level Pressure 30.00 in    
Wind  
Wind Speed 6 mph (SW)    
Max Wind Speed 14 mph    
Max Gust Speed 18 mph    
Visibility 10 miles    
Events Rain    
T = Trace of Precipitation, MM = Missing Value Source: NWS Daily Summary

Daily Weather History Graph

Daily Weather History Graph

Search for Another Location

Airport or City:

Trip Planner

Search our weather history database for the weather conditions in past years. The results will help you decide how hot, cold, wet, or windy it might be!

Date:

Astronomy

Nov. 07, 2012 Rise Set
Actual Time 6:24 AM HST 5:43 PM HST
Civil Twilight 6:01 AM HST 6:05 PM HST
Nautical Twilight 5:35 AM HST 6:32 PM HST
Astronomical Twilight 5:09 AM HST 6:58 PM HST
Moon 12:21 AM HST (11/7) 1:10 PM HST (11/7)
Length of Visible Light 12h 04m
Length of Day
11h 18m
Last Quarter, 41% of the Moon is Illuminated
Nov 7
Last Quarter
Nov 13
New
Nov 20
First Quarter
Nov 28
Full
Dec 6
Last Quarter

Hourly Weather History & Observations

Time (HST) Temp. Heat Index Dew Point Humidity Pressure Visibility Wind Dir Wind Speed Gust Speed Precip Events Conditions
12:53 AM 68.0 °F - 62.1 °F 81% 29.99 in 10.0 mi SW 6.9 mph - N/A   Partly Cloudy
1:53 AM 66.9 °F - 61.0 °F 81% 29.97 in 10.0 mi SW 5.8 mph - N/A   Clear
2:53 AM 66.9 °F - 59.0 °F 76% 29.96 in 10.0 mi SW 6.9 mph - N/A   Scattered Clouds
3:53 AM 66.0 °F - 57.9 °F 75% 29.96 in 10.0 mi WSW 6.9 mph - N/A   Mostly Cloudy
4:53 AM 68.0 °F - 57.9 °F 70% 29.98 in 10.0 mi SW 5.8 mph - N/A   Overcast
5:53 AM 66.9 °F - 55.0 °F 66% 29.99 in 10.0 mi WSW 9.2 mph - N/A   Partly Cloudy
6:27 AM 66.2 °F - 53.6 °F 64% 30.01 in 10.0 mi SW 6.9 mph - N/A   Partly Cloudy
6:53 AM 66.9 °F - 57.9 °F 73% 30.02 in 7.0 mi SSW 4.6 mph - 0.00 in Rain Light Rain
7:53 AM 70.0 °F - 63.0 °F 78% 30.02 in 10.0 mi WSW 6.9 mph - 0.01 in   Mostly Cloudy
8:53 AM 78.1 °F - 64.9 °F 64% 30.04 in 10.0 mi West 4.6 mph - N/A   Partly Cloudy
9:53 AM 80.1 °F 81.9 °F 64.9 °F 60% 30.04 in 10.0 mi Variable 3.5 mph - N/A   Partly Cloudy
10:53 AM 81.0 °F 82.7 °F 64.9 °F 58% 30.02 in 10.0 mi ENE 6.9 mph - N/A   Scattered Clouds
11:53 AM 81.0 °F 83.0 °F 66.0 °F 60% 30.00 in 10.0 mi East 6.9 mph - N/A   Scattered Clouds
12:53 PM 82.9 °F 85.4 °F 66.9 °F 58% 29.98 in 10.0 mi East 8.1 mph - N/A   Scattered Clouds
1:53 PM 81.0 °F 83.3 °F 66.9 °F 62% 29.96 in 10.0 mi ENE 11.5 mph - N/A   Scattered Clouds
2:53 PM 81.0 °F 83.0 °F 66.0 °F 60% 29.96 in 10.0 mi ENE 9.2 mph - N/A   Scattered Clouds
3:53 PM 79.0 °F - 66.0 °F 64% 29.96 in 10.0 mi ESE 6.9 mph - N/A   Mostly Cloudy
4:53 PM 78.1 °F - 66.9 °F 68% 29.97 in 10.0 mi ENE 4.6 mph - N/A   Overcast
5:53 PM 75.0 °F - 68.0 °F 79% 29.99 in 10.0 mi Calm Calm - N/A   Clear
6:30 PM 71.6 °F - 68.0 °F 88% 30.01 in 10.0 mi Calm Calm - N/A   Partly Cloudy
6:53 PM 73.0 °F - 68.0 °F 84% 30.01 in 10.0 mi Calm Calm - N/A   Partly Cloudy
7:53 PM 71.1 °F - 66.9 °F 87% 30.04 in 10.0 mi WSW 5.8 mph - N/A   Clear
8:53 PM 71.1 °F - 66.9 °F 87% 30.05 in 10.0 mi WSW 4.6 mph - N/A   Mostly Cloudy
9:21 PM 69.8 °F - 64.4 °F 83% 30.05 in 10.0 mi SW 5.8 mph - 0.00 in Rain Light Rain
9:53 PM 68.0 °F - 62.1 °F 81% 30.06 in 10.0 mi SW 4.6 mph - 0.00 in   Partly Cloudy
10:53 PM 66.9 °F - 60.1 °F 79% 30.06 in 10.0 mi WSW 6.9 mph - N/A   Clear
11:53 PM 68.0 °F - 59.0 °F 73% 30.06 in 10.0 mi SW 5.8 mph - N/A   Partly Cloudy